Tracking 33723 objects as of 10-Apr-2026
HD Live streaming from Space Station
objects crossing your sky now

STARLINK-31569

Track STARLINK-31569 now!
10-day predictions
STARLINK-31569 is classified as:


NORAD ID: 59857
Int'l Code: 2024-097Y
Perigee: 489.3 km
Apogee: 491.0 km
Inclination: 43.0 °
Period: 94.3 minutes
Semi major axis: 6861 km
RCS: Unknown
Launch date: May 23, 2024
Source: United States (US)
Launch site: AIR FORCE EASTERN TEST RANGE (AFETR)
Your satellite tracking list
Your tracking list is empty




NASA's NSSDC Master Catalog

Two Line Element Set (TLE):
1 59857U 24097Y   26100.25577513  .00001186  00000-0  52628-4 0  9993
2 59857  43.0017  96.1526 0001255 266.4912  93.5796 15.27580923106742
Source of the keplerian elements: AFSPC